{"data":{"norad_id":61905,"epoch":"2026-09-22T22:53:54.777408Z","epoch_age_seconds":90147,"freshness":"FRESH","line1":"1 61905U 24205M   26265.95410622  .00012945  00000+0  33755-3 0  9990","line2":"2 61905  97.3396 340.0325 0021374 102.2286 258.1355 15.38733246103471","mean_motion":15.38733246,"eccentricity":0.0021374,"inclination_deg":97.3396,"raan_deg":340.0325,"arg_perigee_deg":102.2286,"mean_anomaly_deg":258.1355,"bstar":0.00033755,"rev_number":10347,"period_min":93.583472232327,"perigee_km":435.26000575806,"apogee_km":464.4483023434,"semimajor_km":6827.9911540507,"source":"CELESTRAK","updated_at":"2026-09-23T09:00:21.100128Z"}}